EW1689 Weather Reports


Display with metric or nautical units.
time (UTC)temp
F
wind
direction
speed
MPH
gust
MPH
rain 1hr
in
rain 24hr
in
rain mn
in
humidity
%
barometer
mb
20260509185016 95 0 2.0 5.0 0.00 0.00 0.00 14 1011.2
20260509184015 95 0 1.0 4.0 0.00 0.00 0.00 15 1011.3
20260509183016 94 0 3.0 7.0 0.00 0.00 0.00 14 1011.5
20260509182015 95 0 2.0 7.0 0.00 0.00 0.00 13 1011.8
20260509181016 95 0 1.0 5.0 0.00 0.00 0.00 15 1011.8
20260509180016 94 0 3.0 8.0 0.00 0.00 0.00 14 1011.9
20260509175016 94 0 3.0 7.0 0.00 0.00 0.00 13 1012.0
20260509174016 93 0 2.0 6.0 0.00 0.00 0.00 14 1012.0
20260509173015 92 0 1.0 5.0 0.00 0.00 0.00 14 1012.0
20260509172035 90 0 2.0 5.0 0.00 0.00 0.00 14 1011.9
20260509171015 89 0 1.0 5.0 0.00 0.00 0.00 17 1011.8
20260509170016 89 0 2.0 5.0 0.00 0.00 0.00 15 1011.8
20260509165015 88 0 1.0 4.0 0.00 0.00 0.00 16 1011.8
20260509164038 87 0 1.0 6.0 0.00 0.00 0.00 17 1011.8
20260509163017 87 0 2.0 5.0 0.00 0.00 0.00 16 1011.8
20260509162017 87 158 2.0 4.0 0.00 0.00 0.00 16 1011.7
20260509161017 87 158 2.0 5.0 0.00 0.00 0.00 17 1011.8
20260509160017 86 90 1.0 3.0 0.00 0.00 0.00 18 1011.8
20260509155038 86 90 1.0 2.0 0.00 0.00 0.00 17 1011.8
20260509154017 85 0.0 2.0 0.00 0.00 0.00 18 1011.7
20260509153017 85 0.0 2.0 0.00 0.00 0.00 19 1011.7
20260509152018 84 90 1.0 3.0 0.00 0.00 0.00 20 1011.7
20260509151017 83 0.0 2.0 0.00 0.00 0.00 22 1011.7
20260509150017 82 0 1.0 3.0 0.00 0.00 0.00 20 1011.6
20260509145037 81 0.0 0.0 0.00 0.00 0.00 20 1011.6
20260509144017 80 0.0 1.0 0.00 0.00 0.00 21 1011.5
20260509143017 81 0 1.0 3.0 0.00 0.00 0.00 20 1011.5
20260509142017 80 0.0 1.0 0.00 0.00 0.00 24 1011.5
20260509141017 78 0.0 1.0 0.00 0.00 0.00 24 1011.3
20260509140017 77 0.0 0.0 0.00 0.00 0.00 24 1011.2
20260509135017 76 0.0 1.0 0.00 0.00 0.00 31 1011.0
20260509134017 74 0.0 1.0 0.00 0.00 0.00 27 1010.8
20260509133017 74 0.0 1.0 0.00 0.00 0.00 25 1010.7
20260509132017 73 0.0 0.0 0.00 0.00 0.00 25 1010.7
20260509131017 73 0.0 0.0 0.00 0.00 0.00 25 1010.6
20260509130017 73 0.0 0.0 0.00 0.00 0.00 25 1010.4
20260509125017 72 0.0 0.0 0.00 0.00 0.00 24 1010.3
20260509124038 73 0.0 0.0 0.00 0.00 0.00 24 1010.2
20260509123016 73 0.0 0.0 0.00 0.00 0.00 24 1010.1
20260509122018 73 0.0 0.0 0.00 0.00 0.00 23 1010.0
20260509121017 73 0.0 0.0 0.00 0.00 0.00 24 1009.9
20260509120016 73 0.0 0.0 0.00 0.00 0.00 24 1009.8
20260509115017 74 0.0 0.0 0.00 0.00 0.00 24 1009.8
20260509114016 74 0.0 0.0 0.00 0.00 0.00 23 1009.6
20260509113017 74 0.0 0.0 0.00 0.00 0.00 23 1009.6
20260509112017 74 0.0 0.0 0.00 0.00 0.00 24 1009.8
20260509111037 74 0.0 0.0 0.00 0.00 0.00 23 1009.8
20260509110037 74 0.0 0.0 0.00 0.00 0.00 23 1009.7
20260509105017 75 0.0 0.0 0.00 0.00 0.00 23 1009.7
20260509104017 75 0.0 0.0 0.00 0.00 0.00 22 1009.6
20260509103036 76 0.0 0.0 0.00 0.00 0.00 22 1009.7
20260509102016 76 0.0 0.0 0.00 0.00 0.00 22 1009.8
20260509101017 76 0.0 0.0 0.00 0.00 0.00 22 1009.8
20260509100016 76 0.0 0.0 0.00 0.00 0.00 21 1009.8
20260509095016 77 0.0 1.0 0.00 0.00 0.00 20 1009.5
20260509094016 77 0.0 1.0 0.00 0.00 0.00 20 1009.5
20260509093016 78 0.0 1.0 0.00 0.00 0.00 20 1009.6
20260509092016 78 0.0 2.0 0.00 0.00 0.00 20 1009.7
20260509091016 78 0.0 0.0 0.00 0.00 0.00 20 1009.7
20260509090016 79 0.0 0.0 0.00 0.00 0.00 20 1009.7
20260509085016 79 0.0 0.0 0.00 0.00 0.00 20 1009.6
20260509084016 79 0.0 0.0 0.00 0.00 0.00 20 1009.8
20260509083017 79 0.0 1.0 0.00 0.00 0.00 19 1009.8
20260509082016 80 0.0 0.0 0.00 0.00 0.00 19 1009.6
20260509081016 81 0.0 0.0 0.00 0.00 0.00 19 1009.7
20260509080016 82 0.0 1.0 0.00 0.00 0.00 18 1009.8
20260509075016 83 0.0 1.0 0.00 0.00 0.00 17 1009.7
20260509074017 83 0 2.0 4.0 0.00 0.00 0.00 17 1009.8
20260509073103 83 0 1.0 2.0 0.00 0.00 0.00 17 1009.8
20260509072016 84 0.0 0.0 0.00 0.00 0.00 16 1009.7
20260509071016 84 0.0 3.0 0.00 0.00 0.00 17 1009.6
20260509070016 84 0.0 2.0 0.00 0.00 0.00 17 1009.7
20260509065015 85 0.0 1.0 0.00 0.00 0.00 16 1009.8
20260509064017 85 0 1.0 3.0 0.00 0.00 0.00 16 1009.8
20260509063056 85 0 1.0 3.0 0.00 0.00 0.00 16 1009.7
20260509062017 85 0 1.0 3.0 0.00 0.00 0.00 16 1009.4
20260509061018 85 0 1.0 3.0 0.00 0.00 0.00 16 1009.3
20260509060018 85 0 1.0 2.0 0.00 0.00 0.00 17 1009.2
20260509055017 85 0 1.0 3.0 0.00 0.00 0.00 17 1009.2
20260509054017 86 0 1.0 3.0 0.00 0.00 0.00 17 1009.2
20260509053017 86 0 1.0 2.0 0.00 0.00 0.00 17 1009.1
20260509052017 86 0.0 2.0 0.00 0.00 0.00 17 1009.1
20260509051017 86 0 1.0 2.0 0.00 0.00 0.00 17 1009.1
20260509050017 86 0 1.0 4.0 0.00 0.00 0.00 17 1009.1
20260509045017 87 0.0 2.0 0.00 0.00 0.00 17 1008.9
20260509044017 87 0.0 2.0 0.00 0.00 0.00 16 1009.0
20260509043037 87 0.0 2.0 0.00 0.00 0.00 16 1008.9
20260509042017 88 0 1.0 2.0 0.00 0.00 0.00 16 1009.0
20260509041017 88 0 1.0 3.0 0.00 0.00 0.00 16 1008.7
20260509040017 88 0.0 3.0 0.00 0.00 0.00 16 1008.5
20260509035017 88 0 1.0 3.0 0.00 0.00 0.00 16 1008.3
20260509034017 88 0 1.0 2.0 0.00 0.00 0.00 15 1008.2
20260509033017 88 0.0 3.0 0.00 0.00 0.00 15 1008.1
20260509032017 89 0.0 2.0 0.00 0.00 0.00 15 1008.0
20260509031017 89 0.0 3.0 0.00 0.00 0.00 14 1007.9
20260509030017 89 0 1.0 3.0 0.00 0.00 0.00 14 1007.7
20260509025017 90 0.0 2.0 0.00 0.00 0.00 14 1007.8
20260509024017 91 0.0 2.0 0.00 0.00 0.00 14 1007.4
20260509023017 91 0 1.0 4.0 0.00 0.00 0.00 13 1007.5
20260509022017 91 0 1.0 5.0 0.00 0.00 0.00 13 1007.4
20260509021016 91 0 1.0 3.0 0.00 0.00 0.00 13 1006.9
20260509020018 92 0 1.0 5.0 0.00 0.00 0.00 13 1007.0
20260509015037 93 0 1.0 2.0 0.00 0.00 0.00 13 1007.0
20260509014017 93 0 1.0 4.0 0.00 0.00 0.00 13 1006.8
20260509013017 93 0 1.0 5.0 0.00 0.00 0.00 12 1006.8
20260509012017 94 0 1.0 3.0 0.00 0.00 0.00 12 1006.8
20260509011017 94 0 1.0 4.0 0.00 0.00 0.00 12 1006.8
20260509010016 95 0 1.0 3.0 0.00 0.00 0.00 12 1006.9
20260509005018 95 0 1.0 5.0 0.00 0.00 0.00 12 1007.1
20260509004017 95 0 1.0 4.0 0.00 0.00 0.00 12 1007.1
20260509003016 95 0 2.0 5.0 0.00 0.00 0.00 12 1007.2
20260509002016 95 0 2.0 7.0 0.00 0.00 0.00 12 1007.2
20260509001017 96 0 1.0 5.0 0.00 0.00 0.00 12 1007.5
20260509000017 96 0 1.0 3.0 0.00 0.00 0.00 12 1007.5
20260508235017 96 0 2.0 7.0 0.00 0.00 0.00 14 1007.7
20260508234016 97 0 1.0 5.0 0.00 0.00 0.00 13 1008.0
20260508233017 97 0 3.0 8.0 0.00 0.00 0.00 13 1008.1
20260508232017 98 0 2.0 6.0 0.00 0.00 0.00 13 1008.2
20260508231016 98 225 1.0 6.0 0.00 0.00 0.00 13 1008.3
20260508230017 98 203 3.0 8.0 0.00 0.00 0.00 13 1008.4
20260508225016 98 180 2.0 5.0 0.00 0.00 0.00 13 1008.5
20260508224016 98 180 1.0 5.0 0.00 0.00 0.00 13 1008.7
20260508223036 99 0 1.0 4.0 0.00 0.00 0.00 13 1008.8
20260508222016 98 0 2.0 6.0 0.00 0.00 0.00 13 1008.9
20260508221016 98 0 2.0 9.0 0.00 0.00 0.00 13 1009.1
20260508220016 98 0 2.0 7.0 0.00 0.00 0.00 12 1009.2
20260508215016 97 0 2.0 6.0 0.00 0.00 0.00 13 1009.4
20260508214016 96 0 2.0 8.0 0.00 0.00 0.00 15 1009.6
20260508213016 94 0 4.0 11.0 0.00 0.00 0.00 15 1009.6
20260508212016 95 0 3.0 10.0 0.00 0.00 0.00 14 1010.0
20260508211016 96 0 3.0 10.0 0.00 0.00 0.00 14 1010.4
20260508210016 95 0 1.0 4.0 0.00 0.00 0.00 14 1010.6
20260508205016 95 0 1.0 5.0 0.00 0.00 0.00 14 1010.8
20260508204036 95 0 2.0 6.0 0.00 0.00 0.00 13 1010.8
20260508203016 95 0 1.0 8.0 0.00 0.00 0.00 15 1011.0
20260508202016 94 0 1.0 5.0 0.00 0.00 0.00 14 1011.0
20260508201016 93 0 3.0 7.0 0.00 0.00 0.00 15 1011.1
20260508200016 93 0 2.0 7.0 0.00 0.00 0.00 15 1011.3
20260508195016 92 0 1.0 4.0 0.00 0.00 0.00 15 1011.5
20260508194056 92 0 3.0 8.0 0.00 0.00 0.00 15 1011.4
20260508193016 92 0 1.0 5.0 0.00 0.00 0.00 16 1011.8
20260508192016 92 0 1.0 6.0 0.00 0.00 0.00 16 1011.9
20260508191017 91 0 1.0 3.0 0.00 0.00 0.00 16 1012.0
20260508190016 90 0 2.0 4.0 0.00 0.00 0.00 16 1012.0